TIANWANG 1C (TW-1C)
1 40926U 15051B   19273.85887672  .00015597  00000-0  21236-3 0  9990
2 40926  97.1259 319.9614 0006961   0.8987  85.6306 15.57606720226369
TIANWANG 1B (TW-1B)
1 40927U 15051C   19273.79666619  .00014366  00000-0  20844-3 0  9997
2 40927  97.1285 319.0568 0007831  11.6842  67.8327 15.55896936226199
TIANWANG 1A (TW-1A)
1 40928U 15051D   19273.85046387  .00003348  00000-0  82295-4 0  9996
2 40928  97.1387 302.8352 0012560  59.8384  60.7107 15.41257346225215
LAPAN A2
1 40931U 15052B   19271.94698784  .00000512  00000-0 -17736-4 0  9992
2 40931   5.9983  47.5009 0012559 161.1025 198.9569 14.76612721216403
LQSAT
1 40958U 15057A   19273.76203046  .00000023  00000-0  11285-4 0  9990
2 40958  97.8893 340.0970 0016756 266.9779  92.9512 14.73090089214125
CHUBUSAT 2
1 41338U 16012B   19273.88900540 +.00000391 +00000-0 +23776-4 0  9997
2 41338 031.0024 202.5692 0013673 055.3949 304.7975 15.00185354198579
CHUBUSAT 3
1 41339U 16012C   19273.91291000 +.00000288 +00000-0 +15673-4 0  9998
2 41339 031.0105 200.3784 0013458 062.8807 297.3223 15.00357747198575
OUFTI-1
1 41458U 16025C   19273.84297269 +.00001043 +00000-0 +56812-4 0  9999
2 41458 098.1007 005.9826 0165977 007.4057 352.9562 15.06049222188243
E-STAR-2
1 41459U 16025D   19273.75174191  .00000479  00000-0  28739-4 0  9997
2 41459  98.1010   5.4888 0167578   9.0869 351.3342 15.05666475188208
AAUSAT 4
1 41460U 16025E   19273.79429289 +.00001986 +00000-0 +10249-3 0  9994
2 41460 098.0960 007.0420 0156899 000.5225 359.6139 15.07643671188355
NUSAT 1
1 41557U 16033B   19273.88913164  .00001400  00000-0  54881-4 0  9992
2 41557  97.4154   0.7804 0012183 292.2673  67.7273 15.27401264185995
BEESAT 4
1 41619U 16040W   19273.83515811 +.00001451 +00000-0 +63963-4 0  9998
2 41619 097.3572 334.0714 0011853 025.7116 334.4708 15.23327690169719
PRATHAM
1 41783U 16059A   19273.76260626  .00000067  00000-0  22216-4 0  9991
2 41783  98.0568 330.9883 0034649  58.1632 302.2936 14.63011220160761
ALSAT 1N
1 41789U 16059G   19273.86740621 +.00000036 +00000-0 +15743-4 0  9999
2 41789 098.0604 333.3149 0029163 047.6070 312.7592 14.64263747160896
NAYIF 1
1 42017U 17008BX  19273.72179156 +.00001644 +00000-0 +67227-4 0  9993
2 42017 097.3936 339.7035 0007024 149.9616 210.2027 15.25745052145787
MAX VALIER SAT
1 42778U 17036P   19273.72947470 +.00000990 +00000-0 +46106-4 0  9996
2 42778 097.3439 329.0509 0011445 212.1882 147.8657 15.22153135126063
